This is the latest recevied weather packets stored in our database for station/object KF7SOJ. If no packets are shown the sender has not sent any weather packets the latest 10 day(s).
| Time | Temp. | Humidity | Pressure | Rain* | Wind** | Luminosity | Snow |
|---|---|---|---|---|---|---|---|
| 1778001615 | 7.22° C | 41% | 933.3 hPa | 0 mm | - | 197 W/m² | - |
| 1778001311 | 7.78° C | 40% | 933.3 hPa | 0 mm | - | 243 W/m² | - |
| 1778001008 | 7.22° C | 41% | 933.1 hPa | 0 mm | - | 190 W/m² | - |
| 1778000705 | 7.78° C | 37% | 933.2 hPa | 0 mm | - | 187 W/m² | - |
| 1778000400 | 8.33° C | 41% | 933.2 hPa | 0 mm | - | 317 W/m² | - |
| 1778000096 | 8.33° C | 41% | 933.3 hPa | 0 mm | - | 317 W/m² | - |
| 1777999792 | 8.89° C | 38% | 933.3 hPa | 0 mm | - | 278 W/m² | - |
| 1777999488 | 8.33° C | 42% | 933.3 hPa | 0 mm | - | 321 W/m² | - |
| 1777999186 | 8.33° C | 43% | 933.4 hPa | 0 mm | - | 932 W/m² | - |
| 1777998885 | 8.33° C | 41% | 933.2 hPa | 0 mm | - | 374 W/m² | - |
| 1777998584 | 8.33° C | 41% | 933.4 hPa | 0 mm | - | 374 W/m² | - |
| 1777998279 | 8.89° C | 39% | 933.4 hPa | 0 mm | - | 872 W/m² | - |
| 1777997976 | 8.89° C | 39% | 933.5 hPa | 0 mm | - | 872 W/m² | - |
| 1777997672 | 8.89° C | 39% | 933.5 hPa | 0 mm | - | 872 W/m² | - |
| 1777997370 | 8.89° C | 40% | 933.6 hPa | 0 mm | - | 796 W/m² | - |
| 1777997069 | 8.89° C | 41% | 933.6 hPa | 0 mm | - | 810 W/m² | - |
| 1777996765 | 8.33° C | 41% | 933.5 hPa | 0 mm | - | 689 W/m² | - |
| 1777996461 | 7.78° C | 42% | 933.6 hPa | 0 mm | - | 685 W/m² | - |
| 1777996158 | 8.33° C | 42% | 933.6 hPa | 0 mm | - | 619 W/m² | - |
| 1777995854 | 8.33° C | 42% | 933.6 hPa | 0 mm | - | 656 W/m² | - |
| 1777995550 | 7.22° C | 43% | 933.8 hPa | 0 mm | - | 460 W/m² | - |
| 1777995248 | 7.22° C | 47% | 933.5 hPa | 0 mm | - | 316 W/m² | - |
| 1777994944 | 7.22° C | 47% | 933.5 hPa | 0 mm | - | 316 W/m² | - |
| 1777994642 | 7.22° C | 47% | 933.6 hPa | 0 mm | - | 316 W/m² | - |
| 1777994341 | 7.22° C | 49% | 933.8 hPa | 0 mm | - | 255 W/m² | - |
* Rain latest hour (hover to see other rain measurements)
** Current wind speed in m/s (hover to see current wind gust speed)